Regional Weather Roundup
Issued by NWS

Home | Current Version | Previous Version | Text Only | Print | Product List | Glossary Off
Versions: 1 2 3 4 5 6 7 8 9 10 11 12 13 14 15 16 17 18 19 20 21 22 23 24 25 26 27 28 29 30 31 32 33 34 35 36 37 38 39 40 41 42 43 44 45 46 47 48 49 50

250
ASUS45 KABQ 171510
RWRNM
NEW MEXICO REGIONAL WEATHER ROUNDUP
NATIONAL WEATHER SERVICE ALBUQUERQUE NM
900 AM MDT TUE OCT 17 2017

NOTE: "FAIR" MEANS FEW OR NO CLOUDS BELOW 12,000 FEET AGL WITH NO
       SIGNIFICANT WEATHER OR OBSTRUCTIONS TO VISION.

      THIS PRODUCT IS RELEASED AS TWO VERSIONS.  ONE VERSION NEAR
      THE TOP OF THE HOUR CONTAINING PRELIMINARY DATA FROM ALBUQUERQUE
      AND OTHER STATIONS.  A FINAL VERSION WITH ADDITIONAL DATA IS
      ISSUED ABOUT 10 MINUTES AFTER THE HOUR.

NMZ501-503-504-510>518-171600-
NORTHWEST PLATEAU/NORTHCENTRAL MOUNTAINS

CITY           SKY/WX    TMP DP  RH WIND       PRES   REMARKS
FARMINGTON     FAIR      42  21  43 E8        30.38R
LOS ALAMOS     FAIR      48  20  33 CALM      30.43R
SANTA FE       FAIR      47  23  38 N13       30.39R
TAOS           FAIR      42  19  39 NW5       30.47R
ANGEL FIRE     FAIR      32  22  65 CALM      30.49S

$$
NMZ402-403-502-505>509-171600-
WESTCENTRAL MOUNTAINS/SOUTHWEST MOUNTAINS

CITY           SKY/WX    TMP DP  RH WIND       PRES   REMARKS
GALLUP         FAIR      41  19  41 CALM      30.43R
GRANTS         FAIR      41  22  47 NW6       30.44S
SILVER CITY    FAIR      62  44  53 N5        30.36R

$$
NMZ407-409-411-412-171600-
SOUTHERN DESERTS

CITY           SKY/WX    TMP DP  RH WIND       PRES   REMARKS
DEMING         FAIR      62  39  42 E5        30.31R
LAS CRUCES     FAIR      65  38  37 E3        30.33R
HOLLOMAN AFB   FAIR      57  39  51 CALM        N/A
ALAMOGORDO     FAIR      55  37  50 CALM      30.33R
T OR C         FAIR      61  41  47 CALM      30.33R

$$
NMZ519>523-171600-
CENTRAL VALLEYS/CENTRAL HIGHLANDS

CITY           SKY/WX    TMP DP  RH WIND       PRES   REMARKS
ALBUQUERQUE    FAIR      51  28  41 N7        30.37R
DOUBLE EAGLE   MOSUNNY   54  27  35 NE5       30.39R
MORIARTY ARPT  FAIR      47  35  63 CALM      30.41R
CLINES CORNERS NOT AVBL
BELEN          FAIR      51  28  41 N3        30.37R
SOCORRO        FAIR      52  32  45 N6        30.35R

$$
NMZ524>526-539-540-171600-
SOUTHCENTRAL MOUNTAINS

CITY           SKY/WX    TMP DP  RH WIND       PRES   REMARKS
RUIDOSO        FAIR      59  34  38 W8        30.42R

$$
NMZ527>531-171600-
NORTHEAST HIGHLANDS/NORTHEAST PLAINS

CITY           SKY/WX    TMP DP  RH WIND       PRES   REMARKS
LAS VEGAS      FAIR      58  22  24 N6        30.36R
RATON          FAIR      50  23  34 NE6       30.31R
CLAYTON        FAIR      66  20  17 N14       30.22R

$$
NMZ532>537-171600-
EASTCENTRAL PLAINS

CITY           SKY/WX    TMP DP  RH WIND       PRES   REMARKS
SANTA ROSA     FAIR      59  35  40 W9        30.27R
TUCUMCARI      FAIR      56  36  47 W9        30.21R
CANNON AFB     FAIR      54  41  62 SW9       30.28R
CLOVIS AIRPORT   N/A     55  40  56 SW12      30.28R

$$
NMZ028-029-538-171600-
SOUTHEAST PLAINS

CITY           SKY/WX    TMP DP  RH WIND       PRES   REMARKS
ROSWELL        FAIR      49  41  74 CALM      30.28R
ARTESIA        FAIR      54  37  54 CALM      30.29R
CARLSBAD       FAIR      54  41  61 E3        30.27R
HOBBS          SUNNY     57  34  41 S9        30.30R


$$




USA.gov is the U.S. government's official web portal to all federal, state and local government web resources and services.